Regional Weather Roundup
Issued by NWS

Home | Current Version | Previous Version | Text Only | Print | Product List | Glossary On
Versions: 1 2 3 4 5 6 7 8 9 10 11 12 13 14 15 16 17 18 19 20 21 22 23 24 25 26 27 28 29 30 31 32 33 34 35 36 37 38 39 40 41 42 43 44 45 46 47 48 49 50
179
ASUS44 KLIX 220413
RWRLA
LOUISIANA WEATHER ROUNDUP
NATIONAL WEATHER SERVICE NEW ORLEANS LA
1000 PM CST TUE FEB 21 2017

NOTE: "FAIR" INDICATES FEW OR NO CLOUDS BELOW 12,000 FEET WITH NO
      SIGNIFICANT WEATHER AND/OR OBSTRUCTIONS TO VISIBILITY.
      SKY/WX - SKY CONDITION AND SIGNIFICANT WEATHER.
      TMP - AIR TEMPERATURE.    DP   - DEWPOINT TEMPERATURE.
      RH  - RELATIVE HUMIDITY.  PRES - PRESSURE.
      HX  - HEAT INDEX.         WCI  - WIND CHILL INDEX.

*  THESE STATIONS ARE NOT NWS OR FAA STATIONS AND ARE NOT UNDER
   NWS QUALITY CONTROL.

LAZ040-048-061>063-065-066-069-220500-
SOUTHEAST LOUISIANA

CITY           SKY/WX    TMP DP  RH WIND       PRES   REMARKS
N.O. AUDUBON   NOT AVBL
N.O. INTL ARPT PTCLDY    59  56  89 W6        29.87S
N.O. LAKEFRONT CLEAR     64  58  80 W12       29.87R
N.O. DOWNTOWN*   N/A     63  55  75 CALM      29.88R
RESERVE*       FAIR      58  57  94 W3        29.88S FOG
SLIDELL        CLEAR     55  54  96 S3        29.86S
BATON ROUGE    MOCLDY    59  54  83 W6        29.88S
BOOTHVILLE     CLOUDY    63  59  87 W6        29.86S
BELLE CHASSE   MOCLDY    57  56  96 CALM      29.86S
BOGALUSA*      FAIR      58  55  89 CALM      29.87F
GALLIANO*      CLOUDY    59  55  85 CALM      29.87S
NEW ROADS*     CLOUDY    58  55  91 CALM      29.89S
GONZALES*      FAIR      57  56  99 CALM      29.87S
HAMMOND*       CLEAR     55  52  88 CALM      29.87S
HOUMA*         CLEAR     56  55  98 CALM      29.88S
PORT FOURCHON* CLEAR     64  59  82 NW8       29.87R

$$

LAZ041-044-053-054-220500-
SOUTHWEST LOUISIANA

CITY           SKY/WX    TMP DP  RH WIND       PRES   REMARKS
LAKE CHARLES   CLEAR     60  56  86 SW3       29.89S
LAFAYETTE      PTCLDY    63  59  87 CALM      29.88F
PATTERSON      MOCLDY    55  54  96 W3        29.89S
SALT POINT       N/A     57  32  38 CALM      29.88S
NEW IBERIA     MOCLDY    59  54  83 CALM      29.89S
CHENAULT AIRPK MOCLDY    61  57  88 CALM      29.89S

$$

LAZ027-028-220500-
CENTRAL LOUISIANA

CITY           SKY/WX    TMP DP  RH WIND       PRES   REMARKS
FORT POLK      CLOUDY    63  56  79 N3        29.87F
ALEXANDRIA INT CLOUDY    61  58  90 CALM      29.86S
ALEXANDRIA     CLOUDY    59  59 100 CALM      29.88S

$$

LAZ001-002-220500-
NORTHWEST LOUISIANA

CITY           SKY/WX    TMP DP  RH WIND       PRES   REMARKS
SHREVEPORT     CLOUDY    63  57  81 N5        29.89R
BARKSDALE AFB  CLOUDY    60  60 100 W3        29.90R
DTN SHREVEPORT LGT RAIN  63  57  81 N3        29.90R

$$

LAZ014-016-220500-
NORTHEAST LOUISIANA

CITY           SKY/WX    TMP DP  RH WIND       PRES   REMARKS
MONROE         CLOUDY    60  58  92 SW5       29.87S
TALLULAH       MOCLDY    56  54  93 CALM      29.87S

$$





USA.gov is the U.S. government's official web portal to all federal, state and local government web resources and services.